This demonstration page uses our WeatherBlox Daily Observations layout. Learn more.

Left ArrowRight Arrow

38.88101, -77.10428

Hourly Observations for May 20, 2015

Temp ( °F °C ) Dew Point ( °F °C ) Humidity (%) Winds ( mph kmh ) Pressure ( in mb ) Visibility ( mi km ) Precip ( " mm )
12:52 am 00:52 Clear 75 23.9 54 12.2 48 48 NNW 8 13 29.89 1012 10 16 0.00 0.00
1:52 am 01:52 Clear 73 22.8 50 10 44 44 NNW 13 20 29.90 1012 10 16 0.00 0.00
2:52 am 02:52 Clear 71 21.7 48 8.9 44 44 NNW 15 24 29.91 1013 10 16 0.00 0.00
3:52 am 03:52 Clear 68 20 51 10.6 55 55 NNW 20 31 29.94 1014 10 16 0.00 0.00
4:52 am 04:52 Clear 65 18.3 48 8.9 54 54 NNW 21 33 29.95 1014 10 16 0.00 0.00
5:52 am 05:52 Mostly Sunny 63 17.2 45 7.2 52 52 NNW 14 22 29.96 1015 10 16 0.00 0.00
6:52 am 06:52 Mostly Sunny 62 16.7 45 7.2 54 54 NNW 16 26 29.98 1015 10 16 0.00 0.00
7:52 am 07:52 Partly Cloudy 63 17.2 45 7.2 52 52 NNW 20 31 29.99 1016 10 16 0.00 0.00
8:52 am 08:52 Mostly Cloudy 64 17.8 44 6.7 48 48 NNW 20 31 30.00 1016 10 16 0.00 0.00
9:52 am 09:52 Mostly Cloudy 66 18.9 44 6.7 45 45 NNW 21 33 30.00 1016 10 16 0.00 0.00
10:52 am 10:52 Cloudy 67 19.4 44 6.7 44 44 NNW 21 33 30.00 1016 10 16 0.00 0.00
11:52 am 11:52 Cloudy 69 20.6 46 7.8 44 44 N 17 28 30.01 1016 10 16 0.00 0.00
12:52 pm 12:52 Cloudy 70 21.1 46 7.8 42 42 NNW 15 24 29.99 1016 10 16 0.00 0.00
1:52 pm 13:52 Cloudy 72 22.2 48 8.9 43 43 N 13 20 29.99 1016 10 16 0.00 0.00
2:52 pm 14:52 Cloudy 73 22.8 46 7.8 38 38 NW 13 20 29.98 1015 10 16 0.00 0.00
3:52 pm 15:52 Cloudy 72 22.2 45 7.2 38 38 NNW 18 30 29.98 1015 10 16 0.00 0.00
4:52 pm 16:52 Cloudy 73 22.8 45 7.2 37 37 NNW 13 20 29.98 1015 10 16 0.00 0.00
5:52 pm 17:52 Cloudy 73 22.8 45 7.2 37 37 WNW 10 17 29.98 1015 10 16 0.00 0.00
6:52 pm 18:52 Cloudy 71 21.7 44 6.7 38 38 WNW 14 22 29.98 1015 10 16 0.00 0.00
7:52 pm 19:52 Cloudy 68 20 42 5.6 39 39 N 12 19 29.99 1016 10 16 0.00 0.00
8:52 pm 20:52 Mostly Cloudy 67 19.4 43 6.1 42 42 N 10 17 30.00 1016 10 16 0.00 0.00
9:52 pm 21:52 Mostly Cloudy 66 18.9 42 5.6 42 42 N 10 17 30.02 1017 10 16 0.00 0.00
10:52 pm 22:52 Partly Cloudy 65 18.3 43 6.1 45 45 NNE 10 17 30.01 1016 10 16 0.00 0.00
11:52 pm 23:52 Partly Cloudy 64 17.8 44 6.7 48 48 NE 9 15 30.01 1016 10 16 0.00 0.00

Powered by AerisWeather